Погода в Русской Борковке

Россия / Самарская область     53°34′12″N   49°18′48″E
темп.,
°C
ветер,
м/с
пор.,
м/с
влажн.,
%
обл.,
%
осадки,
мм/ч
давл.,
гПа
погр.,
м
14 июня, пн
пн1401:00+16зюз128633 0.1 101411
04:00+15в1189100 0.1 101411
07:00+16ссв118999 0.1 101535
10:00+18ссв128494 0.6 1015170
13:00+22ссз2373100 0.0 1015327
16:00+23с3465100 0.5 1014374
19:00+19ссз5883100 2.2 1015113
22:00+16ссз3495100 5.6 101566
15 июня, вт
вт1501:00+16с3392100 0.7 101447
04:00+16ссз1193100 0.9 101511
07:00+17всв3392100 0.1 101564
10:00+19всв348294 0.1 1014209
13:00+22всв456878 0.0 1012336
16:00+24в586582 0.0 1011569
19:00+22в577024 0.0 1010100
22:00+20в597550 0.0 1008114
16 июня, ср
ср1601:00+18юв347799 0.0 100736
04:00+17ююв347896 0.0 100727
07:00+17ю588993 0.0 1008134
10:00+20ю69782 0.0 1008272
13:00+22ююз79728 0.3 1008444
16:00+22ююз697313 1.1 1007363
19:00+20юз568642 2.9 1007115
22:00+19зюз349180 4.8 100831
17 июня, чт
чт1701:00+17ссз7129314 0.3 1010245
04:00+15ссз7139683 0.3 1013375
07:00+15ссз812885 0.1 1015442
10:00+17с811664 0.1 1016443
13:00+19ссз710551 0.0 1017582
16:00+20ссз810550 0.0 1017665
19:00+18с69641 0.0 1018263
22:00+15ссз49763 0.0 1020149
18 июня, пт
пт1801:00+14ссз59815 0.0 1021188
04:00+13ссз49844 0.0 1022213
07:00+14с58762 0.0 1023289
10:00+17с686446 0.0 1024396
13:00+19с68552 0.0 1024668
16:00+19с69530 0.0 1025617
19:00+18ссв46635 0.0 1025154
22:00+15с227317 0.0 102613